Time,TemperatureF,DewpointF,PressureIn,WindDirection,WindDirectionDegrees,WindSpeedMPH,WindSpeedGustMPH,Humidity,HourlyPrecipIn,Conditions,Clouds,dailyrainin,SoftwareType,DateUTC
2013-10-27 00:01:00,47.0,36.0,29.33,SSW,202,0.0,7.0,66,0.00,,,0.00,Rainwise IP-100,2013-10-27 04:01:00,
2013-10-27 00:06:00,46.0,36.0,29.32,WSW,247,0.0,6.0,68,0.00,,,0.00,Rainwise IP-100,2013-10-27 04:06:00,
2013-10-27 00:11:00,46.0,36.0,29.32,SE,135,3.0,6.0,69,0.00,,,0.00,Rainwise IP-100,2013-10-27 04:11:00,
2013-10-27 00:16:00,46.0,36.0,29.33,ESE,112,1.0,8.0,69,0.00,,,0.00,Rainwise IP-100,2013-10-27 04:16:00,
2013-10-27 00:21:00,46.0,36.0,29.33,West,270,6.0,7.0,68,0.00,,,0.00,Rainwise IP-100,2013-10-27 04:21:00,
2013-10-27 00:26:00,46.0,36.0,29.33,SSW,202,4.0,7.0,68,0.00,,,0.00,Rainwise IP-100,2013-10-27 04:26:00,
2013-10-27 00:31:00,47.0,36.0,29.33,WSW,247,7.0,8.0,67,0.00,,,0.00,Rainwise IP-100,2013-10-27 04:31:00,
2013-10-27 00:36:00,47.0,36.0,29.31,West,270,4.0,9.0,65,0.00,,,0.00,Rainwise IP-100,2013-10-27 04:36:00,
2013-10-27 00:41:00,47.0,35.0,29.31,SSW,202,9.0,9.0,63,0.00,,,0.00,Rainwise IP-100,2013-10-27 04:41:00,
2013-10-27 00:46:00,47.0,35.0,29.31,SSW,202,3.0,12.0,61,0.00,,,0.00,Rainwise IP-100,2013-10-27 04:46:00,
2013-10-27 00:51:00,48.0,36.0,29.31,SSW,202,0.0,10.0,62,0.00,,,0.00,Rainwise IP-100,2013-10-27 04:51:00,
2013-10-27 00:56:00,48.0,36.0,29.31,SW,225,3.0,9.0,61,0.00,,,0.00,Rainwise IP-100,2013-10-27 04:56:00,
2013-10-27 01:01:00,48.0,36.0,29.31,East,90,4.0,8.0,62,0.00,,,0.00,Rainwise IP-100,2013-10-27 05:01:00,
2013-10-27 01:06:00,48.0,36.0,29.31,SE,135,0.0,9.0,61,0.00,,,0.00,Rainwise IP-100,2013-10-27 05:06:00,
2013-10-27 01:11:00,48.0,35.0,29.31,SW,225,3.0,11.0,59,0.00,,,0.00,Rainwise IP-100,2013-10-27 05:11:00,
2013-10-27 01:16:00,48.0,35.0,29.30,SW,225,1.0,8.0,60,0.00,,,0.00,Rainwise IP-100,2013-10-27 05:16:00,
2013-10-27 01:21:00,48.0,35.0,29.30,South,180,2.0,8.0,60,0.00,,,0.00,Rainwise IP-100,2013-10-27 05:21:00,
2013-10-27 01:26:00,48.0,35.0,29.30,East,90,2.0,5.0,60,0.00,,,0.00,Rainwise IP-100,2013-10-27 05:26:00,
2013-10-27 01:31:00,47.0,35.0,29.30,SE,135,4.0,5.0,62,0.00,,,0.00,Rainwise IP-100,2013-10-27 05:31:00,
2013-10-27 01:36:00,47.0,35.0,29.30,SE,135,3.0,5.0,62,0.00,,,0.00,Rainwise IP-100,2013-10-27 05:36:00,
2013-10-27 01:41:00,47.0,35.0,29.30,SE,135,3.0,5.0,63,0.00,,,0.00,Rainwise IP-100,2013-10-27 05:41:00,
2013-10-27 01:46:00,47.0,35.0,29.30,SE,135,3.0,6.0,63,0.00,,,0.00,Rainwise IP-100,2013-10-27 05:46:00,
2013-10-27 01:51:00,47.0,35.0,29.30,South,180,1.0,4.0,63,0.00,,,0.00,Rainwise IP-100,2013-10-27 05:51:00,
2013-10-27 01:56:00,47.0,36.0,29.30,South,180,0.0,2.0,65,0.00,,,0.00,Rainwise IP-100,2013-10-27 05:56:00,
2013-10-27 02:01:00,47.0,35.0,29.30,South,180,1.0,1.0,64,0.00,,,0.00,Rainwise IP-100,2013-10-27 06:01:00,
2013-10-27 02:06:00,47.0,36.0,29.30,SSE,157,1.0,6.0,65,0.00,,,0.00,Rainwise IP-100,2013-10-27 06:06:00,
2013-10-27 02:11:00,47.0,36.0,29.30,WNW,292,0.0,4.0,67,0.00,,,0.00,Rainwise IP-100,2013-10-27 06:11:00,
2013-10-27 02:16:00,47.0,36.0,29.30,SW,225,4.0,10.0,65,0.00,,,0.00,Rainwise IP-100,2013-10-27 06:16:00,
2013-10-27 02:21:00,46.0,36.0,29.30,WSW,247,0.0,9.0,69,0.00,,,0.00,Rainwise IP-100,2013-10-27 06:21:00,
2013-10-27 02:26:00,46.0,38.0,29.31,NW,315,0.0,7.0,74,0.00,,,0.00,Rainwise IP-100,2013-10-27 06:26:00,
2013-10-27 02:31:00,46.0,39.0,29.31,South,180,0.0,8.0,76,0.00,,,0.00,Rainwise IP-100,2013-10-27 06:31:00,
2013-10-27 02:36:00,45.0,38.0,29.30,SE,135,0.0,6.0,76,0.00,,,0.00,Rainwise IP-100,2013-10-27 06:36:00,
2013-10-27 02:41:00,45.0,38.0,29.30,South,180,3.0,9.0,76,0.00,,,0.00,Rainwise IP-100,2013-10-27 06:41:00,
2013-10-27 02:46:00,45.0,39.0,29.29,ESE,112,6.0,7.0,79,0.00,,,0.00,Rainwise IP-100,2013-10-27 06:46:00,
2013-10-27 02:51:00,45.0,38.0,29.29,SE,135,4.0,8.0,75,0.00,,,0.00,Rainwise IP-100,2013-10-27 06:51:00,
2013-10-27 02:56:00,45.0,38.0,29.29,SE,135,4.0,6.0,75,0.00,,,0.00,Rainwise IP-100,2013-10-27 06:56:00,
2013-10-27 03:01:00,45.0,37.0,29.29,South,180,4.0,7.0,74,0.00,,,0.00,Rainwise IP-100,2013-10-27 07:01:00,
2013-10-27 03:06:00,45.0,38.0,29.29,ESE,112,3.0,9.0,75,0.00,,,0.00,Rainwise IP-100,2013-10-27 07:06:00,
2013-10-27 03:11:00,45.0,38.0,29.29,ESE,112,7.0,7.0,75,0.00,,,0.00,Rainwise IP-100,2013-10-27 07:11:00,
2013-10-27 03:16:00,46.0,38.0,29.28,SE,135,4.0,8.0,73,0.00,,,0.00,Rainwise IP-100,2013-10-27 07:16:00,
2013-10-27 03:21:00,46.0,38.0,29.28,NNW,337,0.0,7.0,74,0.00,,,0.00,Rainwise IP-100,2013-10-27 07:21:00,
2013-10-27 03:26:00,46.0,38.0,29.28,SE,135,6.0,10.0,73,0.00,,,0.00,Rainwise IP-100,2013-10-27 07:26:00,
2013-10-27 03:31:00,46.0,38.0,29.28,South,180,2.0,9.0,74,0.00,,,0.00,Rainwise IP-100,2013-10-27 07:31:00,
2013-10-27 03:36:00,46.0,38.0,29.28,SSW,202,5.0,6.0,74,0.00,,,0.00,Rainwise IP-100,2013-10-27 07:36:00,
2013-10-27 03:41:00,46.0,38.0,29.28,SSW,202,2.0,9.0,74,0.00,,,0.00,Rainwise IP-100,2013-10-27 07:41:00,
2013-10-27 03:46:00,46.0,38.0,29.27,SSW,202,1.0,7.0,75,0.00,,,0.00,Rainwise IP-100,2013-10-27 07:46:00,
2013-10-27 03:51:00,45.0,38.0,29.27,West,270,1.0,6.0,76,0.00,,,0.00,Rainwise IP-100,2013-10-27 07:51:00,
2013-10-27 03:56:00,45.0,38.0,29.27,ESE,112,4.0,5.0,77,0.00,,,0.00,Rainwise IP-100,2013-10-27 07:56:00,
2013-10-27 04:01:00,45.0,38.0,29.27,SSE,157,0.0,7.0,77,0.00,,,0.00,Rainwise IP-100,2013-10-27 08:01:00,
2013-10-27 04:06:00,45.0,39.0,29.27,ESE,112,3.0,6.0,79,0.00,,,0.00,Rainwise IP-100,2013-10-27 08:06:00,
2013-10-27 04:11:00,45.0,39.0,29.27,SE,135,5.0,6.0,81,0.00,,,0.00,Rainwise IP-100,2013-10-27 08:11:00,
2013-10-27 04:16:00,45.0,40.0,29.26,SE,135,3.0,6.0,83,0.00,,,0.00,Rainwise IP-100,2013-10-27 08:16:00,
2013-10-27 04:21:00,44.0,40.0,29.26,SE,135,1.0,6.0,85,0.00,,,0.00,Rainwise IP-100,2013-10-27 08:21:00,
2013-10-27 04:26:00,44.0,40.0,29.26,SE,135,2.0,6.0,85,0.00,,,0.00,Rainwise IP-100,2013-10-27 08:26:00,
2013-10-27 04:31:00,44.0,40.0,29.26,SE,135,2.0,5.0,87,0.00,,,0.00,Rainwise IP-100,2013-10-27 08:31:00,
2013-10-27 04:36:00,44.0,41.0,29.26,SE,135,1.0,5.0,88,0.00,,,0.00,Rainwise IP-100,2013-10-27 08:36:00,
2013-10-27 04:41:00,44.0,41.0,29.26,ESE,112,0.0,8.0,88,0.00,,,0.00,Rainwise IP-100,2013-10-27 08:41:00,
2013-10-27 04:46:00,44.0,41.0,29.26,ESE,112,3.0,4.0,89,0.00,,,0.00,Rainwise IP-100,2013-10-27 08:46:00,
2013-10-27 04:51:00,44.0,41.0,29.26,ESE,112,3.0,5.0,90,0.00,,,0.00,Rainwise IP-100,2013-10-27 08:51:00,
2013-10-27 04:56:00,43.0,40.0,29.26,SE,135,0.0,4.0,89,0.00,,,0.00,Rainwise IP-100,2013-10-27 08:56:00,
2013-10-27 05:01:00,43.0,40.0,29.26,South,180,1.0,4.0,90,0.00,,,0.00,Rainwise IP-100,2013-10-27 09:01:00,
2013-10-27 05:06:00,43.0,40.0,29.26,SE,135,0.0,5.0,90,0.00,,,0.00,Rainwise IP-100,2013-10-27 09:06:00,
2013-10-27 05:11:00,43.0,40.0,29.26,SE,135,1.0,4.0,90,0.00,,,0.00,Rainwise IP-100,2013-10-27 09:11:00,
2013-10-27 05:16:00,43.0,40.0,29.27,SE,135,2.0,4.0,91,0.00,,,0.00,Rainwise IP-100,2013-10-27 09:16:00,
2013-10-27 05:21:00,43.0,40.0,29.27,ESE,112,2.0,6.0,91,0.00,,,0.00,Rainwise IP-100,2013-10-27 09:21:00,
2013-10-27 05:26:00,43.0,41.0,29.27,SE,135,2.0,5.0,92,0.00,,,0.00,Rainwise IP-100,2013-10-27 09:26:00,
2013-10-27 05:31:00,43.0,41.0,29.27,SE,135,3.0,6.0,92,0.00,,,0.00,Rainwise IP-100,2013-10-27 09:31:00,
2013-10-27 05:36:00,43.0,41.0,29.27,SE,135,3.0,5.0,92,0.00,,,0.00,Rainwise IP-100,2013-10-27 09:36:00,
2013-10-27 05:41:00,43.0,41.0,29.27,SE,135,3.0,6.0,93,0.00,,,0.00,Rainwise IP-100,2013-10-27 09:41:00,
2013-10-27 05:46:00,43.0,41.0,29.27,SE,135,4.0,7.0,92,0.00,,,0.00,Rainwise IP-100,2013-10-27 09:46:00,
2013-10-27 05:51:00,43.0,41.0,29.27,SE,135,2.0,6.0,93,0.00,,,0.00,Rainwise IP-100,2013-10-27 09:51:00,
2013-10-27 05:56:00,43.0,41.0,29.28,ESE,112,3.0,6.0,93,0.00,,,0.00,Rainwise IP-100,2013-10-27 09:56:00,
2013-10-27 06:01:00,43.0,41.0,29.28,SE,135,5.0,6.0,93,0.00,,,0.00,Rainwise IP-100,2013-10-27 10:01:00,
2013-10-27 06:06:00,43.0,41.0,29.28,SE,135,3.0,5.0,93,0.00,,,0.00,Rainwise IP-100,2013-10-27 10:06:00,
2013-10-27 06:11:00,43.0,41.0,29.28,SE,135,2.0,6.0,94,0.00,,,0.00,Rainwise IP-100,2013-10-27 10:11:00,
2013-10-27 06:16:00,43.0,41.0,29.28,SE,135,6.0,6.0,93,0.00,,,0.00,Rainwise IP-100,2013-10-27 10:16:00,
2013-10-27 06:21:00,43.0,41.0,29.28,SE,135,2.0,7.0,94,0.00,,,0.00,Rainwise IP-100,2013-10-27 10:21:00,
2013-10-27 06:26:00,43.0,41.0,29.28,WSW,247,1.0,5.0,93,0.00,,,0.00,Rainwise IP-100,2013-10-27 10:26:00,
2013-10-27 06:31:00,43.0,41.0,29.28,SE,135,4.0,5.0,92,0.00,,,0.00,Rainwise IP-100,2013-10-27 10:31:00,
2013-10-27 06:36:00,43.0,40.0,29.28,South,180,2.0,5.0,91,0.00,,,0.00,Rainwise IP-100,2013-10-27 10:36:00,
2013-10-27 06:41:00,43.0,40.0,29.28,ESE,112,3.0,4.0,91,0.00,,,0.00,Rainwise IP-100,2013-10-27 10:41:00,
2013-10-27 06:46:00,43.0,40.0,29.28,SE,135,0.0,4.0,91,0.00,,,0.00,Rainwise IP-100,2013-10-27 10:46:00,
2013-10-27 06:51:00,43.0,40.0,29.28,SE,135,1.0,4.0,91,0.00,,,0.00,Rainwise IP-100,2013-10-27 10:51:00,
2013-10-27 06:56:00,43.0,41.0,29.28,SSW,202,0.0,5.0,92,0.00,,,0.00,Rainwise IP-100,2013-10-27 10:56:00,
2013-10-27 07:01:00,43.0,41.0,29.28,SE,135,2.0,5.0,92,0.00,,,0.00,Rainwise IP-100,2013-10-27 11:01:00,
2013-10-27 07:06:00,43.0,41.0,29.28,SE,135,2.0,6.0,92,0.00,,,0.00,Rainwise IP-100,2013-10-27 11:06:00,
2013-10-27 07:11:00,43.0,41.0,29.28,ESE,112,1.0,6.0,92,0.00,,,0.00,Rainwise IP-100,2013-10-27 11:11:00,
2013-10-27 07:16:00,43.0,41.0,29.28,ESE,112,4.0,6.0,92,0.00,,,0.00,Rainwise IP-100,2013-10-27 11:16:00,
2013-10-27 07:21:00,43.0,41.0,29.28,East,90,2.0,4.0,93,0.00,,,0.00,Rainwise IP-100,2013-10-27 11:21:00,
2013-10-27 07:26:00,43.0,41.0,29.29,ESE,112,3.0,5.0,93,0.00,,,0.00,Rainwise IP-100,2013-10-27 11:26:00,
2013-10-27 07:31:00,43.0,41.0,29.29,SE,135,2.0,5.0,94,0.00,,,0.00,Rainwise IP-100,2013-10-27 11:31:00,
2013-10-27 07:36:00,43.0,41.0,29.29,SE,135,2.0,6.0,94,0.00,,,0.00,Rainwise IP-100,2013-10-27 11:36:00,
2013-10-27 07:41:00,42.0,41.0,29.29,SE,135,0.0,3.0,95,0.00,,,0.00,Rainwise IP-100,2013-10-27 11:41:00,
2013-10-27 07:46:00,42.0,41.0,29.30,WSW,247,1.0,6.0,95,0.00,,,0.00,Rainwise IP-100,2013-10-27 11:46:00,
2013-10-27 07:51:00,42.0,41.0,29.30,South,180,0.0,6.0,95,0.00,,,0.00,Rainwise IP-100,2013-10-27 11:51:00,
2013-10-27 07:56:00,43.0,42.0,29.30,SE,135,0.0,6.0,95,0.00,,,0.00,Rainwise IP-100,2013-10-27 11:56:00,
2013-10-27 08:01:00,43.0,41.0,29.30,West,270,1.0,5.0,92,0.00,,,0.00,Rainwise IP-100,2013-10-27 12:01:00,
2013-10-27 08:06:00,43.0,40.0,29.31,SSW,202,1.0,5.0,91,0.00,,,0.00,Rainwise IP-100,2013-10-27 12:06:00,
2013-10-27 08:11:00,44.0,41.0,29.31,South,180,1.0,5.0,90,0.00,,,0.00,Rainwise IP-100,2013-10-27 12:11:00,
2013-10-27 08:16:00,44.0,41.0,29.31,SW,225,3.0,6.0,90,0.00,,,0.00,Rainwise IP-100,2013-10-27 12:16:00,
2013-10-27 08:21:00,44.0,41.0,29.31,South,180,1.0,6.0,89,0.00,,,0.00,Rainwise IP-100,2013-10-27 12:21:00,
2013-10-27 08:26:00,44.0,41.0,29.31,South,180,1.0,6.0,89,0.00,,,0.00,Rainwise IP-100,2013-10-27 12:26:00,
2013-10-27 08:31:00,44.0,41.0,29.31,ENE,67,0.0,2.0,88,0.00,,,0.00,Rainwise IP-100,2013-10-27 12:31:00,
2013-10-27 08:36:00,44.0,40.0,29.31,WSW,247,0.0,5.0,87,0.00,,,0.00,Rainwise IP-100,2013-10-27 12:36:00,
2013-10-27 08:41:00,44.0,40.0,29.31,WSW,247,0.0,2.0,87,0.00,,,0.00,Rainwise IP-100,2013-10-27 12:41:00,
2013-10-27 08:46:00,44.0,40.0,29.31,SSW,202,0.0,5.0,86,0.00,,,0.00,Rainwise IP-100,2013-10-27 12:46:00,
2013-10-27 08:51:00,44.0,39.0,29.31,SW,225,1.0,4.0,84,0.00,,,0.00,Rainwise IP-100,2013-10-27 12:51:00,
2013-10-27 08:56:00,45.0,40.0,29.31,SW,225,2.0,4.0,82,0.00,,,0.00,Rainwise IP-100,2013-10-27 12:56:00,
2013-10-27 09:00:00,45.0,40.0,29.31,SW,225,2.0,5.0,82,0.00,,,0.00,Rainwise IP-100,2013-10-27 13:00:00,
2013-10-27 09:05:00,46.0,40.0,29.30,SW,225,0.0,6.0,80,0.00,,,0.00,Rainwise IP-100,2013-10-27 13:05:00,
2013-10-27 09:10:00,46.0,39.0,29.30,WSW,247,1.0,7.0,77,0.00,,,0.00,Rainwise IP-100,2013-10-27 13:10:00,
2013-10-27 09:15:00,47.0,40.0,29.31,South,180,5.0,5.0,77,0.00,,,0.00,Rainwise IP-100,2013-10-27 13:15:00,
2013-10-27 09:20:00,48.0,42.0,29.31,West,270,2.0,7.0,78,0.00,,,0.00,Rainwise IP-100,2013-10-27 13:20:00,
2013-10-27 09:25:00,48.0,39.0,29.31,SW,225,4.0,7.0,72,0.00,,,0.00,Rainwise IP-100,2013-10-27 13:25:00,
2013-10-27 09:30:00,48.0,38.0,29.31,WNW,292,7.0,10.0,68,0.00,,,0.00,Rainwise IP-100,2013-10-27 13:30:00,
2013-10-27 09:35:00,49.0,38.0,29.31,SW,225,6.0,9.0,67,0.00,,,0.00,Rainwise IP-100,2013-10-27 13:35:00,
2013-10-27 09:40:00,49.0,39.0,29.31,WNW,292,2.0,12.0,68,0.00,,,0.00,Rainwise IP-100,2013-10-27 13:40:00,
2013-10-27 09:45:00,50.0,39.0,29.31,SSW,202,1.0,9.0,66,0.00,,,0.00,Rainwise IP-100,2013-10-27 13:45:00,
2013-10-27 09:50:00,50.0,39.0,29.31,West,270,7.0,7.0,66,0.00,,,0.00,Rainwise IP-100,2013-10-27 13:50:00,
2013-10-27 09:55:00,50.0,38.0,29.31,NW,315,2.0,9.0,64,0.00,,,0.00,Rainwise IP-100,2013-10-27 13:55:00,
2013-10-27 10:00:00,50.0,38.0,29.31,WNW,292,9.0,15.0,63,0.00,,,0.00,Rainwise IP-100,2013-10-27 14:00:00,
2013-10-27 10:05:00,50.0,37.0,29.32,WNW,292,7.0,15.0,61,0.00,,,0.00,Rainwise IP-100,2013-10-27 14:05:00,
2013-10-27 10:10:00,50.0,37.0,29.32,West,270,5.0,17.0,61,0.00,,,0.00,Rainwise IP-100,2013-10-27 14:10:00,
2013-10-27 10:15:00,50.0,37.0,29.32,WNW,292,8.0,11.0,61,0.00,,,0.00,Rainwise IP-100,2013-10-27 14:15:00,
2013-10-27 10:20:00,51.0,38.0,29.32,WNW,292,3.0,11.0,60,0.00,,,0.00,Rainwise IP-100,2013-10-27 14:20:00,
2013-10-27 10:25:00,51.0,37.0,29.31,SW,225,12.0,18.0,59,0.00,,,0.00,Rainwise IP-100,2013-10-27 14:25:00,
2013-10-27 10:30:00,51.0,37.0,29.31,SW,225,7.0,18.0,59,0.00,,,0.00,Rainwise IP-100,2013-10-27 14:30:00,
2013-10-27 10:35:00,51.0,37.0,29.32,West,270,5.0,12.0,59,0.00,,,0.00,Rainwise IP-100,2013-10-27 14:35:00,
2013-10-27 10:40:00,52.0,37.0,29.32,SW,225,3.0,13.0,56,0.00,,,0.00,Rainwise IP-100,2013-10-27 14:40:00,
2013-10-27 10:45:00,52.0,37.0,29.32,SSW,202,3.0,13.0,56,0.00,,,0.00,Rainwise IP-100,2013-10-27 14:45:00,
2013-10-27 10:50:00,52.0,37.0,29.32,West,270,7.0,9.0,57,0.00,,,0.00,Rainwise IP-100,2013-10-27 14:50:00,
2013-10-27 10:55:00,52.0,37.0,29.32,NW,315,7.0,15.0,56,0.00,,,0.00,Rainwise IP-100,2013-10-27 14:55:00,
2013-10-27 11:00:00,51.0,37.0,29.32,NW,315,4.0,12.0,59,0.00,,,0.00,Rainwise IP-100,2013-10-27 15:00:00,
2013-10-27 11:05:00,52.0,38.0,29.33,WSW,247,1.0,10.0,60,0.00,,,0.00,Rainwise IP-100,2013-10-27 15:05:00,
2013-10-27 11:10:00,52.0,36.0,29.33,North,360,5.0,15.0,54,0.00,,,0.00,Rainwise IP-100,2013-10-27 15:10:00,
2013-10-27 11:15:00,53.0,37.0,29.32,South,180,6.0,13.0,54,0.00,,,0.00,Rainwise IP-100,2013-10-27 15:15:00,
2013-10-27 11:20:00,53.0,36.0,29.32,West,270,3.0,13.0,53,0.00,,,0.00,Rainwise IP-100,2013-10-27 15:20:00,
2013-10-27 11:25:00,53.0,36.0,29.32,WNW,292,0.0,12.0,53,0.00,,,0.00,Rainwise IP-100,2013-10-27 15:25:00,
2013-10-27 11:30:00,53.0,36.0,29.32,WSW,247,10.0,10.0,53,0.00,,,0.00,Rainwise IP-100,2013-10-27 15:30:00,
2013-10-27 11:35:00,52.0,36.0,29.33,West,270,6.0,15.0,54,0.00,,,0.00,Rainwise IP-100,2013-10-27 15:35:00,
2013-10-27 11:40:00,52.0,36.0,29.33,West,270,6.0,11.0,54,0.00,,,0.00,Rainwise IP-100,2013-10-27 15:40:00,
2013-10-27 11:45:00,51.0,36.0,29.33,WNW,292,7.0,13.0,54,0.00,,,0.00,Rainwise IP-100,2013-10-27 15:45:00,
2013-10-27 11:50:00,51.0,36.0,29.33,West,270,7.0,12.0,56,0.00,,,0.00,Rainwise IP-100,2013-10-27 15:50:00,
2013-10-27 11:55:00,51.0,36.0,29.33,West,270,3.0,10.0,56,0.00,,,0.00,Rainwise IP-100,2013-10-27 15:55:00,
2013-10-27 12:00:00,51.0,36.0,29.33,NNW,337,7.0,7.0,56,0.00,,,0.00,Rainwise IP-100,2013-10-27 16:00:00,
2013-10-27 12:05:00,51.0,36.0,29.33,NW,315,6.0,10.0,55,0.00,,,0.00,Rainwise IP-100,2013-10-27 16:05:00,
2013-10-27 12:10:00,51.0,36.0,29.33,WNW,292,10.0,14.0,55,0.00,,,0.00,Rainwise IP-100,2013-10-27 16:10:00,
2013-10-27 12:15:00,51.0,36.0,29.33,WSW,247,4.0,12.0,54,0.00,,,0.00,Rainwise IP-100,2013-10-27 16:15:00,
2013-10-27 12:20:00,51.0,36.0,29.33,West,270,5.0,10.0,55,0.00,,,0.00,Rainwise IP-100,2013-10-27 16:20:00,
2013-10-27 12:25:00,51.0,36.0,29.32,WSW,247,7.0,12.0,55,0.00,,,0.00,Rainwise IP-100,2013-10-27 16:25:00,
2013-10-27 12:30:00,51.0,35.0,29.32,NW,315,3.0,11.0,53,0.00,,,0.00,Rainwise IP-100,2013-10-27 16:30:00,
2013-10-27 12:35:00,52.0,36.0,29.32,West,270,7.0,13.0,55,0.00,,,0.00,Rainwise IP-100,2013-10-27 16:35:00,
2013-10-27 12:40:00,53.0,35.0,29.32,West,270,7.0,21.0,50,0.00,,,0.00,Rainwise IP-100,2013-10-27 16:40:00,
2013-10-27 12:45:00,53.0,35.0,29.32,WSW,247,12.0,13.0,50,0.00,,,0.00,Rainwise IP-100,2013-10-27 16:45:00,
2013-10-27 12:50:00,53.0,35.0,29.32,WNW,292,5.0,16.0,51,0.00,,,0.00,Rainwise IP-100,2013-10-27 16:50:00,
2013-10-27 12:55:00,53.0,35.0,29.32,NW,315,7.0,19.0,51,0.00,,,0.00,Rainwise IP-100,2013-10-27 16:55:00,
2013-10-27 13:00:00,53.0,35.0,29.32,West,270,4.0,13.0,50,0.00,,,0.00,Rainwise IP-100,2013-10-27 17:00:00,
2013-10-27 13:05:00,52.0,35.0,29.32,NW,315,8.0,17.0,50,0.00,,,0.00,Rainwise IP-100,2013-10-27 17:05:00,
2013-10-27 13:10:00,52.0,35.0,29.32,SSW,202,7.0,13.0,51,0.00,,,0.00,Rainwise IP-100,2013-10-27 17:10:00,
2013-10-27 13:15:00,52.0,35.0,29.31,SW,225,5.0,12.0,50,0.00,,,0.00,Rainwise IP-100,2013-10-27 17:15:00,
2013-10-27 13:20:00,52.0,35.0,29.31,WSW,247,6.0,12.0,52,0.00,,,0.00,Rainwise IP-100,2013-10-27 17:20:00,
2013-10-27 13:25:00,53.0,35.0,29.32,South,180,4.0,13.0,51,0.00,,,0.00,Rainwise IP-100,2013-10-27 17:25:00,
2013-10-27 13:30:00,54.0,36.0,29.32,SW,225,5.0,10.0,50,0.00,,,0.00,Rainwise IP-100,2013-10-27 17:30:00,
2013-10-27 13:35:00,55.0,37.0,29.31,SW,225,10.0,10.0,50,0.00,,,0.00,Rainwise IP-100,2013-10-27 17:35:00,
2013-10-27 13:40:00,54.0,36.0,29.31,SSW,202,6.0,12.0,49,0.00,,,0.00,Rainwise IP-100,2013-10-27 17:40:00,
2013-10-27 13:45:00,53.0,35.0,29.32,ESE,112,3.0,12.0,50,0.00,,,0.00,Rainwise IP-100,2013-10-27 17:45:00,
2013-10-27 13:50:00,53.0,35.0,29.32,South,180,6.0,11.0,50,0.00,,,0.00,Rainwise IP-100,2013-10-27 17:50:00,
2013-10-27 13:55:00,52.0,33.0,29.32,ENE,67,1.0,14.0,49,0.00,,,0.00,Rainwise IP-100,2013-10-27 17:55:00,
2013-10-27 14:00:00,52.0,35.0,29.32,WNW,292,6.0,9.0,50,0.00,,,0.00,Rainwise IP-100,2013-10-27 18:00:00,
2013-10-27 14:05:00,52.0,35.0,29.32,SE,135,0.0,13.0,51,0.00,,,0.00,Rainwise IP-100,2013-10-27 18:05:00,
2013-10-27 14:10:00,52.0,35.0,29.32,NW,315,6.0,11.0,50,0.00,,,0.00,Rainwise IP-100,2013-10-27 18:10:00,
2013-10-27 14:15:00,52.0,35.0,29.31,SW,225,2.0,12.0,50,0.00,,,0.00,Rainwise IP-100,2013-10-27 18:15:00,
2013-10-27 14:20:00,52.0,33.0,29.31,SW,225,6.0,13.0,49,0.00,,,0.00,Rainwise IP-100,2013-10-27 18:20:00,
2013-10-27 14:25:00,52.0,32.0,29.31,WNW,292,7.0,15.0,47,0.00,,,0.00,Rainwise IP-100,2013-10-27 18:25:00,
2013-10-27 14:30:00,52.0,33.0,29.31,NW,315,5.0,12.0,48,0.00,,,0.00,Rainwise IP-100,2013-10-27 18:30:00,
2013-10-27 14:35:00,53.0,32.0,29.31,SW,225,6.0,10.0,46,0.00,,,0.00,Rainwise IP-100,2013-10-27 18:35:00,
2013-10-27 14:40:00,53.0,32.0,29.31,North,360,2.0,14.0,45,0.00,,,0.00,Rainwise IP-100,2013-10-27 18:40:00,
2013-10-27 14:45:00,52.0,31.0,29.31,WNW,292,6.0,20.0,44,0.00,,,0.00,Rainwise IP-100,2013-10-27 18:45:00,
2013-10-27 14:50:00,52.0,31.0,29.31,West,270,6.0,15.0,44,0.00,,,0.00,Rainwise IP-100,2013-10-27 18:50:00,
2013-10-27 14:55:00,53.0,32.0,29.31,NW,315,9.0,13.0,45,0.00,,,0.00,Rainwise IP-100,2013-10-27 18:55:00,
2013-10-27 15:00:00,52.0,32.0,29.31,NNW,337,5.0,12.0,45,0.00,,,0.00,Rainwise IP-100,2013-10-27 19:00:00,
2013-10-27 15:05:00,52.0,32.0,29.32,WNW,292,9.0,13.0,45,0.00,,,0.00,Rainwise IP-100,2013-10-27 19:05:00,
2013-10-27 15:10:00,52.0,32.0,29.32,West,270,8.0,12.0,45,0.00,,,0.00,Rainwise IP-100,2013-10-27 19:10:00,
2013-10-27 15:15:00,52.0,32.0,29.32,WSW,247,0.0,13.0,46,0.00,,,0.00,Rainwise IP-100,2013-10-27 19:15:00,
2013-10-27 15:20:00,52.0,32.0,29.32,WSW,247,10.0,13.0,45,0.00,,,0.00,Rainwise IP-100,2013-10-27 19:20:00,
2013-10-27 15:25:00,52.0,32.0,29.32,SW,225,6.0,14.0,45,0.00,,,0.00,Rainwise IP-100,2013-10-27 19:25:00,
2013-10-27 15:30:00,52.0,32.0,29.32,NW,315,3.0,12.0,45,0.00,,,0.00,Rainwise IP-100,2013-10-27 19:30:00,
2013-10-27 15:35:00,53.0,32.0,29.33,NW,315,6.0,17.0,44,0.00,,,0.00,Rainwise IP-100,2013-10-27 19:35:00,
2013-10-27 15:40:00,53.0,32.0,29.33,West,270,7.0,13.0,44,0.00,,,0.00,Rainwise IP-100,2013-10-27 19:40:00,
2013-10-27 15:45:00,53.0,32.0,29.33,NW,315,2.0,15.0,44,0.00,,,0.00,Rainwise IP-100,2013-10-27 19:45:00,
2013-10-27 15:50:00,53.0,32.0,29.33,West,270,9.0,12.0,44,0.00,,,0.00,Rainwise IP-100,2013-10-27 19:50:00,
2013-10-27 15:54:00,53.0,32.0,29.33,West,270,6.0,14.0,44,0.00,,,0.00,Rainwise IP-100,2013-10-27 19:54:00,
2013-10-27 15:59:00,53.0,31.0,29.33,WNW,292,8.0,10.0,43,0.00,,,0.00,Rainwise IP-100,2013-10-27 19:59:00,
2013-10-27 16:04:00,53.0,32.0,29.33,WSW,247,8.0,11.0,44,0.00,,,0.00,Rainwise IP-100,2013-10-27 20:04:00,
2013-10-27 16:09:00,53.0,31.0,29.33,NNW,337,3.0,13.0,43,0.00,,,0.00,Rainwise IP-100,2013-10-27 20:09:00,
2013-10-27 16:14:00,53.0,31.0,29.33,West,270,8.0,13.0,43,0.00,,,0.00,Rainwise IP-100,2013-10-27 20:14:00,
2013-10-27 16:19:00,53.0,31.0,29.33,WNW,292,5.0,11.0,43,0.00,,,0.00,Rainwise IP-100,2013-10-27 20:19:00,
2013-10-27 16:24:00,52.0,31.0,29.34,NW,315,7.0,15.0,44,0.00,,,0.00,Rainwise IP-100,2013-10-27 20:24:00,
2013-10-27 16:29:00,52.0,32.0,29.34,WNW,292,3.0,15.0,45,0.00,,,0.00,Rainwise IP-100,2013-10-27 20:29:00,
2013-10-27 16:34:00,52.0,32.0,29.34,West,270,9.0,9.0,46,0.00,,,0.00,Rainwise IP-100,2013-10-27 20:34:00,
2013-10-27 16:39:00,52.0,32.0,29.34,WSW,247,5.0,15.0,46,0.00,,,0.00,Rainwise IP-100,2013-10-27 20:39:00,
2013-10-27 16:44:00,52.0,32.0,29.34,North,360,0.0,13.0,46,0.00,,,0.00,Rainwise IP-100,2013-10-27 20:44:00,
2013-10-27 16:49:00,52.0,32.0,29.34,WNW,292,4.0,13.0,46,0.00,,,0.00,Rainwise IP-100,2013-10-27 20:49:00,
2013-10-27 16:54:00,51.0,31.0,29.35,West,270,7.0,13.0,46,0.00,,,0.00,Rainwise IP-100,2013-10-27 20:54:00,
2013-10-27 16:59:00,51.0,32.0,29.35,SW,225,5.0,9.0,47,0.00,,,0.00,Rainwise IP-100,2013-10-27 20:59:00,
2013-10-27 17:04:00,51.0,31.0,29.35,NW,315,4.0,9.0,46,0.00,,,0.00,Rainwise IP-100,2013-10-27 21:04:00,
2013-10-27 17:09:00,51.0,32.0,29.35,WNW,292,5.0,9.0,47,0.00,,,0.00,Rainwise IP-100,2013-10-27 21:09:00,
2013-10-27 17:14:00,51.0,32.0,29.36,NNW,337,6.0,9.0,47,0.00,,,0.00,Rainwise IP-100,2013-10-27 21:14:00,
2013-10-27 17:19:00,51.0,32.0,29.36,West,270,3.0,10.0,47,0.00,,,0.00,Rainwise IP-100,2013-10-27 21:19:00,
2013-10-27 17:24:00,51.0,31.0,29.36,NW,315,5.0,12.0,46,0.00,,,0.00,Rainwise IP-100,2013-10-27 21:24:00,
2013-10-27 17:29:00,50.0,29.0,29.36,NW,315,8.0,13.0,44,0.00,,,0.00,Rainwise IP-100,2013-10-27 21:29:00,
2013-10-27 17:34:00,50.0,28.0,29.37,West,270,13.0,14.0,43,0.00,,,0.00,Rainwise IP-100,2013-10-27 21:34:00,
2013-10-27 17:39:00,50.0,29.0,29.37,West,270,7.0,15.0,44,0.00,,,0.00,Rainwise IP-100,2013-10-27 21:39:00,
2013-10-27 17:44:00,51.0,31.0,29.36,WNW,292,10.0,12.0,45,0.00,,,0.00,Rainwise IP-100,2013-10-27 21:44:00,
2013-10-27 17:49:00,50.0,28.0,29.36,WSW,247,7.0,19.0,43,0.00,,,0.00,Rainwise IP-100,2013-10-27 21:49:00,
2013-10-27 17:54:00,50.0,29.0,29.37,West,270,7.0,12.0,44,0.00,,,0.00,Rainwise IP-100,2013-10-27 21:54:00,
2013-10-27 17:59:00,50.0,31.0,29.37,West,270,1.0,11.0,46,0.00,,,0.00,Rainwise IP-100,2013-10-27 21:59:00,
2013-10-27 18:04:00,49.0,29.0,29.39,West,270,6.0,10.0,46,0.00,,,0.00,Rainwise IP-100,2013-10-27 22:04:00,
2013-10-27 18:09:00,49.0,29.0,29.39,SSW,202,4.0,12.0,47,0.00,,,0.00,Rainwise IP-100,2013-10-27 22:09:00,
2013-10-27 18:14:00,49.0,31.0,29.39,WNW,292,6.0,9.0,49,0.00,,,0.00,Rainwise IP-100,2013-10-27 22:14:00,
2013-10-27 18:19:00,49.0,31.0,29.39,West,270,4.0,12.0,49,0.00,,,0.00,Rainwise IP-100,2013-10-27 22:19:00,
2013-10-27 18:24:00,49.0,32.0,29.39,NW,315,6.0,10.0,50,0.00,,,0.00,Rainwise IP-100,2013-10-27 22:24:00,
2013-10-27 18:29:00,48.0,31.0,29.39,NW,315,3.0,10.0,51,0.00,,,0.00,Rainwise IP-100,2013-10-27 22:29:00,
2013-10-27 18:34:00,48.0,31.0,29.41,NW,315,3.0,7.0,51,0.00,,,0.00,Rainwise IP-100,2013-10-27 22:34:00,
2013-10-27 18:39:00,48.0,31.0,29.41,NW,315,3.0,7.0,51,0.00,,,0.00,Rainwise IP-100,2013-10-27 22:39:00,
2013-10-27 18:44:00,48.0,31.0,29.41,West,270,3.0,6.0,51,0.00,,,0.00,Rainwise IP-100,2013-10-27 22:44:00,
2013-10-27 18:49:00,47.0,31.0,29.41,West,270,1.0,8.0,52,0.00,,,0.00,Rainwise IP-100,2013-10-27 22:49:00,
2013-10-27 18:54:00,47.0,31.0,29.41,West,270,2.0,4.0,52,0.00,,,0.00,Rainwise IP-100,2013-10-27 22:54:00,
2013-10-27 18:59:00,47.0,31.0,29.41,West,270,1.0,5.0,52,0.00,,,0.00,Rainwise IP-100,2013-10-27 22:59:00,
2013-10-27 19:04:00,47.0,31.0,29.42,WNW,292,0.0,6.0,54,0.00,,,0.00,Rainwise IP-100,2013-10-27 23:04:00,
2013-10-27 19:09:00,46.0,31.0,29.42,West,270,3.0,3.0,55,0.00,,,0.00,Rainwise IP-100,2013-10-27 23:09:00,
2013-10-27 19:14:00,46.0,31.0,29.43,West,270,1.0,5.0,56,0.00,,,0.00,Rainwise IP-100,2013-10-27 23:14:00,
2013-10-27 19:19:00,45.0,31.0,29.43,West,270,2.0,2.0,58,0.00,,,0.00,Rainwise IP-100,2013-10-27 23:19:00,
2013-10-27 19:24:00,45.0,32.0,29.43,West,270,1.0,2.0,60,0.00,,,0.00,Rainwise IP-100,2013-10-27 23:24:00,
2013-10-27 19:29:00,44.0,31.0,29.43,West,270,0.0,2.0,59,0.00,,,0.00,Rainwise IP-100,2013-10-27 23:29:00,
2013-10-27 19:34:00,44.0,32.0,29.43,West,270,0.0,0.0,62,0.00,,,0.00,Rainwise IP-100,2013-10-27 23:34:00,
2013-10-27 19:39:00,43.0,31.0,29.43,WSW,247,2.0,3.0,60,0.00,,,0.00,Rainwise IP-100,2013-10-27 23:39:00,
2013-10-27 19:44:00,43.0,31.0,29.44,WSW,247,1.0,2.0,61,0.00,,,0.00,Rainwise IP-100,2013-10-27 23:44:00,
2013-10-27 19:49:00,43.0,31.0,29.44,WSW,247,0.0,1.0,62,0.00,,,0.00,Rainwise IP-100,2013-10-27 23:49:00,
2013-10-27 19:54:00,43.0,31.0,29.45,East,90,0.0,3.0,62,0.00,,,0.00,Rainwise IP-100,2013-10-27 23:54:00,
2013-10-27 19:59:00,44.0,32.0,29.45,NNW,337,0.0,1.0,61,0.00,,,0.00,Rainwise IP-100,2013-10-27 23:59:00,
2013-10-27 20:04:00,44.0,32.0,29.45,West,270,1.0,5.0,61,0.00,,,0.00,Rainwise IP-100,2013-10-28 00:04:00,
2013-10-27 20:09:00,44.0,32.0,29.45,West,270,1.0,3.0,61,0.00,,,0.00,Rainwise IP-100,2013-10-28 00:09:00,
2013-10-27 20:14:00,44.0,33.0,29.45,West,270,3.0,5.0,64,0.00,,,0.00,Rainwise IP-100,2013-10-28 00:14:00,
2013-10-27 20:19:00,43.0,31.0,29.45,SW,225,0.0,4.0,62,0.00,,,0.00,Rainwise IP-100,2013-10-28 00:19:00,
2013-10-27 20:24:00,43.0,32.0,29.45,WSW,247,1.0,5.0,65,0.00,,,0.00,Rainwise IP-100,2013-10-28 00:24:00,
2013-10-27 20:29:00,42.0,32.0,29.45,NNW,337,2.0,7.0,67,0.00,,,0.00,Rainwise IP-100,2013-10-28 00:29:00,
2013-10-27 20:34:00,42.0,32.0,29.45,North,360,0.0,3.0,67,0.00,,,0.00,Rainwise IP-100,2013-10-28 00:34:00,
2013-10-27 20:39:00,42.0,32.0,29.45,NW,315,1.0,3.0,65,0.00,,,0.00,Rainwise IP-100,2013-10-28 00:39:00,
2013-10-27 20:44:00,42.0,32.0,29.45,NW,315,0.0,2.0,65,0.00,,,0.00,Rainwise IP-100,2013-10-28 00:44:00,
2013-10-27 20:49:00,42.0,32.0,29.45,NW,315,0.0,3.0,67,0.00,,,0.00,Rainwise IP-100,2013-10-28 00:49:00,
2013-10-27 20:54:00,42.0,32.0,29.46,WSW,247,1.0,4.0,67,0.00,,,0.00,Rainwise IP-100,2013-10-28 00:54:00,
2013-10-27 20:59:00,41.0,32.0,29.46,West,270,0.0,6.0,71,0.00,,,0.00,Rainwise IP-100,2013-10-28 00:59:00,
2013-10-27 21:04:00,41.0,32.0,29.46,SW,225,6.0,6.0,69,0.00,,,0.00,Rainwise IP-100,2013-10-28 01:04:00,
2013-10-27 21:09:00,41.0,33.0,29.46,West,270,1.0,7.0,72,0.00,,,0.00,Rainwise IP-100,2013-10-28 01:09:00,
2013-10-27 21:14:00,41.0,33.0,29.47,NW,315,0.0,6.0,74,0.00,,,0.00,Rainwise IP-100,2013-10-28 01:14:00,
2013-10-27 21:19:00,41.0,33.0,29.47,SW,225,0.0,6.0,73,0.00,,,0.00,Rainwise IP-100,2013-10-28 01:19:00,
2013-10-27 21:24:00,41.0,33.0,29.47,WNW,292,0.0,6.0,72,0.00,,,0.00,Rainwise IP-100,2013-10-28 01:24:00,
2013-10-27 21:29:00,41.0,33.0,29.47,WSW,247,1.0,3.0,72,0.00,,,0.00,Rainwise IP-100,2013-10-28 01:29:00,
2013-10-27 21:34:00,41.0,32.0,29.47,WNW,292,0.0,8.0,71,0.00,,,0.00,Rainwise IP-100,2013-10-28 01:34:00,
2013-10-27 21:39:00,41.0,32.0,29.47,NNW,337,1.0,6.0,70,0.00,,,0.00,Rainwise IP-100,2013-10-28 01:39:00,
2013-10-27 21:44:00,41.0,32.0,29.47,NNW,337,0.0,3.0,70,0.00,,,0.00,Rainwise IP-100,2013-10-28 01:44:00,
2013-10-27 21:49:00,41.0,32.0,29.47,NNW,337,0.0,0.0,71,0.00,,,0.00,Rainwise IP-100,2013-10-28 01:49:00,
2013-10-27 21:54:00,40.0,32.0,29.48,NNW,337,0.0,1.0,72,0.00,,,0.00,Rainwise IP-100,2013-10-28 01:54:00,
2013-10-27 21:59:00,40.0,33.0,29.48,NNW,337,0.0,2.0,74,0.00,,,0.00,Rainwise IP-100,2013-10-28 01:59:00,
2013-10-27 22:04:00,39.0,32.0,29.49,NNW,337,0.0,1.0,77,0.00,,,0.00,Rainwise IP-100,2013-10-28 02:04:00,
2013-10-27 22:09:00,39.0,33.0,29.49,NNW,337,0.0,2.0,78,0.00,,,0.00,Rainwise IP-100,2013-10-28 02:09:00,
2013-10-27 22:14:00,38.0,32.0,29.49,NNW,337,0.0,2.0,79,0.00,,,0.00,Rainwise IP-100,2013-10-28 02:14:00,
2013-10-27 22:19:00,38.0,32.0,29.49,NNW,337,0.0,1.0,80,0.00,,,0.00,Rainwise IP-100,2013-10-28 02:19:00,
2013-10-27 22:24:00,38.0,32.0,29.50,West,270,0.0,5.0,80,0.00,,,0.00,Rainwise IP-100,2013-10-28 02:24:00,
2013-10-27 22:29:00,38.0,32.0,29.50,West,270,2.0,2.0,79,0.00,,,0.00,Rainwise IP-100,2013-10-28 02:29:00,
2013-10-27 22:34:00,38.0,32.0,29.50,West,270,2.0,2.0,80,0.00,,,0.00,Rainwise IP-100,2013-10-28 02:34:00,
2013-10-27 22:39:00,38.0,33.0,29.50,West,270,1.0,3.0,81,0.00,,,0.00,Rainwise IP-100,2013-10-28 02:39:00,
2013-10-27 22:44:00,37.0,32.0,29.50,West,270,0.0,2.0,82,0.00,,,0.00,Rainwise IP-100,2013-10-28 02:44:00,
2013-10-27 22:49:00,37.0,32.0,29.50,West,270,1.0,3.0,84,0.00,,,0.00,Rainwise IP-100,2013-10-28 02:49:00,
2013-10-27 22:54:00,37.0,33.0,29.51,West,270,3.0,3.0,85,0.00,,,0.00,Rainwise IP-100,2013-10-28 02:54:00,
2013-10-27 22:59:00,37.0,32.0,29.51,WNW,292,3.0,5.0,83,0.00,,,0.00,Rainwise IP-100,2013-10-28 02:59:00,
2013-10-27 23:04:00,38.0,33.0,29.49,WNW,292,2.0,4.0,82,0.00,,,0.00,Rainwise IP-100,2013-10-28 03:04:00,
2013-10-27 23:09:00,37.0,32.0,29.49,WNW,292,1.0,3.0,82,0.00,,,0.00,Rainwise IP-100,2013-10-28 03:09:00,
2013-10-27 23:14:00,37.0,32.0,29.50,WNW,292,0.0,3.0,84,0.00,,,0.00,Rainwise IP-100,2013-10-28 03:14:00,
2013-10-27 23:19:00,37.0,33.0,29.50,WNW,292,0.0,1.0,85,0.00,,,0.00,Rainwise IP-100,2013-10-28 03:19:00,
2013-10-27 23:24:00,37.0,33.0,29.50,WNW,292,0.0,0.0,86,0.00,,,0.00,Rainwise IP-100,2013-10-28 03:24:00,
2013-10-27 23:29:00,37.0,33.0,29.50,WNW,292,0.0,5.0,87,0.00,,,0.00,Rainwise IP-100,2013-10-28 03:29:00,
2013-10-27 23:34:00,37.0,33.0,29.51,WNW,292,1.0,3.0,88,0.00,,,0.00,Rainwise IP-100,2013-10-28 03:34:00,
2013-10-27 23:39:00,37.0,33.0,29.51,SW,225,0.0,3.0,86,0.00,,,0.00,Rainwise IP-100,2013-10-28 03:39:00,
2013-10-27 23:44:00,37.0,33.0,29.50,WNW,292,0.0,6.0,86,0.00,,,0.00,Rainwise IP-100,2013-10-28 03:44:00,
2013-10-27 23:49:00,37.0,33.0,29.50,WNW,292,0.0,0.0,85,0.00,,,0.00,Rainwise IP-100,2013-10-28 03:49:00,
2013-10-27 23:54:00,37.0,33.0,29.51,WNW,292,0.0,1.0,85,0.00,,,0.00,Rainwise IP-100,2013-10-28 03:54:00,
2013-10-27 23:59:00,36.0,32.0,29.51,WNW,292,0.0,0.0,85,0.00,,,0.00,Rainwise IP-100,2013-10-28 03:59:00,